Regional Weather Roundup
Issued by NWS

Home | Current Version | Previous Version | Graphics & Text | Print | Product List | Glossary On
Versions: 1 2 3 4 5 6 7 8 9 10 11 12 13 14 15 16 17 18 19 20 21 22 23 24 25 26 27 28 29 30 31 32 33 34 35 36 37 38 39 40 41 42 43 44 45 46 47 48 49 50
000
ASUS43 KLOT 271358
RWRIL

ILLINOIS REGIONAL WEATHER ROUNDUP
NATIONAL WEATHER SERVICE CHICAGO/ROMEOVILLE IL
800 AM CST TUE JAN 27 2015

NOTE: "FAIR" INDICATES FEW OR NO CLOUDS BELOW 12,000 FEET WITH NO
SIGNIFICANT WEATHER AND/OR OBSTRUCTIONS TO VISIBILITY.

* THESE STATIONS ARE NOT UNDER NWS QUALITY CONTROL. THEY ALSO MAY NOT
  REPORT WEATHER SUCH AS PRECIPITATION OR FOG.

ILZ001-002-007-009-015-016-024-271500-
NORTHWEST ILLINOIS

CITY           SKY/WX    TMP DP  RH WIND       PRES   REMARKS
MOLINE         CLOUDY    30  24  78 N10G20    30.11R WCI  21
$$

ILZ003-004-008-010-011-017-018-271500-
NORTH CENTRAL ILLINOIS

CITY           SKY/WX    TMP DP  RH WIND       PRES   REMARKS
ROCKFORD       NOT AVBL
$$

ILZ005-006-012>014-019>023-271500-
NORTHEAST ILLINOIS

CITY           SKY/WX    TMP DP  RH WIND       PRES   REMARKS
CHICAGO-OHARE  CLOUDY    28  24  85 NE9       30.07R WCI  19
CHICAGO-MIDWAY CLOUDY    30  24  78 NE10      30.08R WCI  21
AURORA         CLOUDY    28  23  81 N7        30.08R HAZE    WCI  21
WAUKEGAN       NOT AVBL
DUPAGE AIRPORT CLOUDY    27  24  89 N7        30.07R FOG     WCI  19
WHEELING       CLOUDY    28  22  78 NE5       30.10R WCI  23
NORTHERLY ISL    N/A     28  21  75 NE12        N/A  WCI  18
$$

LMZ740>746-271500-
SOUTHERN LAKE MICHIGAN

STATION/POSITION SKY/WX   TEMP    WIND        PRES    VSBY  WAVE
                          AIR SEA DIR/SP/G                  HT/PER
                          (F)     (DEG/KT/KT) (MB)    (MI)  (FT/S)
WAUKEGAN HARBOR            29      70/  8/ 10   N/A
HARRISON CRIB              27      60/ 12/ 13   N/A
BURNHAM HARBOR             28      60/ 10       N/A
CALUMET HARBOR             28      50/  9/ 13   N/A
MICHIGAN CITY              23      60/  4/  5   N/A
$$

ILZ025>027-034>036-040-047-049-050-058-095>099-271500-
WEST-CENTRAL ILLINOIS

CITY           SKY/WX    TMP DP  RH WIND       PRES   REMARKS
QUINCY         PTCLDY    31  29  92 NW7       30.10R WCI  24
$$

ILZ028>032-037-038-041>044-048-051>054-059>061-271500-
CENTRAL ILLINOIS

CITY           SKY/WX    TMP DP  RH WIND       PRES   REMARKS
DECATUR        CLOUDY    30  28  93 N6        30.06R FOG     WCI  24
PEORIA         NOT AVBL
SPRINGFIELD    CLOUDY    33  29  85 N8        30.08R FOG     WCI  26
TAYLORVILLE    NOT AVBL
$$

ILZ033-039-045-046-055>057-062-063-271500-
EAST-CENTRAL ILLINOIS

CITY           SKY/WX    TMP DP  RH WIND       PRES   REMARKS
CHAMPAIGN      CLOUDY    31  28  89 N8        30.05R WCI  23
MATTOON        CLOUDY    31  29  92 NE9       30.03R FOG     WCI  23
$$

ILZ079-100>102-271500-
SOUTHWEST ILLINOIS

CITY           SKY/WX    TMP DP  RH WIND       PRES   REMARKS
CAHOKIA*       PTCLDY    38  34  85 N8        30.09R WCI  32
$$

ILZ064>066-069>071-074>076-080>082-084>086-088>090-092>094-271500-
SOUTH-CENTRAL ILLINOIS

CITY           SKY/WX    TMP DP  RH WIND       PRES   REMARKS
CARBONDALE     CLEAR     33  30  88 NW3       30.08R
$$

ILZ067-068-072-073-078-083-087-091-271500-
SOUTHEAST ILLINOIS

CITY           SKY/WX    TMP DP  RH WIND       PRES   REMARKS
$$

ABBREVIATIONS USED IN REMARKS
   TC - TEMPERATURE IN CELSIUS
  WCI - WIND CHILL INDEX
   HX - HEAT INDEX
  VSB - VISIBILITY
$$



USA.gov is the U.S. government's official web portal to all federal, state and local government web resources and services.